Location: Huntington
(40.8831°N, 85.4975°W)
Time: 00:43:11
(UTC-04:00)

Envisat - Pass Details

Date: 20 April 2021
Orbit: 764 x 766 km, 98.1° (Epoch: 17 May)

Event Time Altitude Azimuth Distance (km) Brightness Sun altitude
Rises 06:16:15 0° 27° (NNE) 3,238 7.1 -7.8°
Reaches altitude 10° 06:19:02 10° 41° (NE) 2,307 6.7 -7.3°
Maximum altitude 06:23:02 23° 94° (E) 1,579 5.6 -6.6°
Drops below altitude 10° 06:27:01 10° 146° (SE) 2,293 5.7 -5.9°
Sets 06:29:45 0° 160° (SSE) 3,214 6.2 -5.4°
